CW9914 Lugo ES current weather conditions

sailwx.info

Wind from 312 at 3 knots gusting 7

Air temperature 3.9° C
Dewpoint 3.9° C

Last reported at 2019-Nov-15 07:04 UTC.
Time now 2019-Nov-15 07:45 UTC

Location: N 43°00' W 007°33'.
View on Google Maps.

See reports from other nearby stations

  
Tides and Currents Weather Stations Pressure Air Temp Water Temp Dewpoint Dewpoint Depression Visibility Wind Speed Wind Dir Waves Ship Positions
date/time (UTC)wind fromknots sea level pressurealtimeterstation pressurevisibilityair tempwater tempwave heightnotes
2019-Nov-15 07:04 312 3 gusting 7 3.9
2019-Nov-15 06:59 316 5 gusting 7 3.9
2019-Nov-15 06:54 327 4 gusting 13 3.9
2019-Nov-15 06:49 332 5 gusting 11 3.9
2019-Nov-15 06:44 310 4 gusting 6 3.9
2019-Nov-15 06:39 309 4 gusting 11 3.9
2019-Nov-15 06:34 313 6 gusting 11 3.9
2019-Nov-15 06:29 317 4 gusting 8 3.9
2019-Nov-15 06:24 306 4 gusting 10 3.9
2019-Nov-15 06:19 305 6 gusting 10 3.9
2019-Nov-15 06:14 302 6 gusting 10 3.9
2019-Nov-15 06:09 308 6 gusting 10 3.9
2019-Nov-15 06:04 314 6 gusting 10 3.9
2019-Nov-15 05:59 306 7 gusting 11 3.9
2019-Nov-15 05:54 306 7 gusting 11 3.9
2019-Nov-15 05:49 309 6 gusting 11 3.9
2019-Nov-15 05:44 306 7 gusting 14 3.9
2019-Nov-15 05:39 301 8 gusting 13 3.9
2019-Nov-15 05:34 301 9 gusting 13 3.9
2019-Nov-15 05:29 310 8 gusting 13 3.9
2019-Nov-15 05:24 307 5 gusting 13 3.9
2019-Nov-15 05:19 311 6 gusting 17 3.9
2019-Nov-15 05:14 333 9 gusting 15 3.9
2019-Nov-15 05:09 332 11 gusting 17 3.9
2019-Nov-15 05:04 344 10 gusting 24 3.9
2019-Nov-15 04:59 340 12 gusting 20 3.9
2019-Nov-15 04:54 313 8 gusting 13 3.9
2019-Nov-15 04:49 297 4 gusting 10 3.9
2019-Nov-15 04:44 301 5 gusting 10 3.9
2019-Nov-15 04:39 305 6 gusting 10 3.9
2019-Nov-15 04:34 307 4 gusting 10 3.9
2019-Nov-15 04:29 327 6 gusting 13 3.9
2019-Nov-15 04:24 331 6 gusting 13 3.9
2019-Nov-15 04:19 334 5 gusting 10 3.9
2019-Nov-15 04:14 306 4 gusting 7 3.9
2019-Nov-15 04:09 325 3 gusting 7 3.3
2019-Nov-15 04:04 331 3 gusting 7 3.3
2019-Nov-15 03:59 318 1 gusting 7 3.3
2019-Nov-15 03:54 309 5 gusting 10 3.3
2019-Nov-15 03:49 298 5 gusting 8 3.3
2019-Nov-15 03:44 306 7 gusting 10 3.3
2019-Nov-15 03:39 293 5 gusting 8 3.3
2019-Nov-15 03:34 294 5 gusting 10 3.3
2019-Nov-15 03:29 288 2 gusting 6 3.3
2019-Nov-15 03:24 293 2 gusting 5 3.3
2019-Nov-15 03:19 278 1 gusting 4 3.3
2019-Nov-15 03:14 301 2 gusting 6 3.3
2019-Nov-15 03:09 318 3 gusting 6 3.3
2019-Nov-15 03:04 337 2 gusting 6 3.3
2019-Nov-15 02:59 348 3 gusting 6 3.3
2019-Nov-15 02:54 321 1 gusting 5 3.3
2019-Nov-15 02:49 357 2 gusting 6 3.3
2019-Nov-15 02:44 359 1 gusting 6 3.3
2019-Nov-15 02:39 327 2 gusting 5 2.8
2019-Nov-15 02:34 309 2 gusting 6 2.8
2019-Nov-15 02:29 310 4 gusting 6 2.8
2019-Nov-15 02:24 297 4 gusting 7 2.8
2019-Nov-15 02:19 304 6 gusting 8 2.8
2019-Nov-15 02:14 304 5 gusting 8 2.8
2019-Nov-15 02:09 302 6 gusting 8 2.8
2019-Nov-15 02:04 302 5 gusting 7 2.8
2019-Nov-15 01:59 305 5 gusting 10 2.8
2019-Nov-15 01:54 310 6 gusting 10 2.8
2019-Nov-15 01:49 305 4 gusting 10 2.8
2019-Nov-15 01:44 302 6 gusting 11 2.8
2019-Nov-15 01:39 296 9 gusting 15 2.8
2019-Nov-15 01:34 311 10 gusting 14 2.8
2019-Nov-15 01:29 309 7 gusting 14 2.8
2019-Nov-15 01:24 300 8 gusting 13 2.8
2019-Nov-15 01:19 302 8 gusting 12 2.8
2019-Nov-15 01:14 299 6 gusting 10 2.8
2019-Nov-15 01:09 309 7 gusting 14 3.3
2019-Nov-15 01:04 302 9 gusting 14 3.3
2019-Nov-15 00:59 292 6 gusting 11 3.3
2019-Nov-15 00:54 311 6 gusting 11 3.3
2019-Nov-15 00:49 304 6 gusting 13 3.3
2019-Nov-15 00:44 309 5 gusting 11 3.3
2019-Nov-15 00:39 311 6 gusting 13 3.3
2019-Nov-15 00:34 310 6 gusting 12 3.3
2019-Nov-15 00:29 337 5 gusting 13 3.3
2019-Nov-15 00:24 308 5 gusting 10 3.3
2019-Nov-15 00:19 308 6 gusting 10 3.3
2019-Nov-15 00:14 296 6 gusting 10 3.3
2019-Nov-15 00:09 305 6 gusting 10 3.3
2019-Nov-15 00:04 302 6 gusting 10 3.3
2019-Nov-14 23:59 304 6 gusting 11 3.3
2019-Nov-14 23:54 311 6 gusting 12 3.3
2019-Nov-14 23:49 294 9 gusting 13 3.3
2019-Nov-14 23:44 314 6 gusting 13 3.3
2019-Nov-14 23:39 320 7 gusting 15 3.9
2019-Nov-14 23:34 311 6 gusting 11 3.9
2019-Nov-14 23:29 321 7 gusting 13 3.9
2019-Nov-14 23:24 310 7 gusting 11 3.9
2019-Nov-14 23:19 304 6 gusting 14 3.9
2019-Nov-14 23:14 299 8 gusting 19 3.9
2019-Nov-14 23:09 331 7 gusting 12 4.4
2019-Nov-14 23:04 344 5 gusting 10 4.4
2019-Nov-14 22:59 335 5 gusting 10 4.4
2019-Nov-14 22:54 342 7 gusting 10 4.4
2019-Nov-14 22:49 337 7 gusting 13 4.4
2019-Nov-14 22:44 338 5 gusting 12 4.4
2019-Nov-14 22:39 357 4 gusting 7 4.4
2019-Nov-14 22:34 339 5 gusting 8 4.4
2019-Nov-14 22:29 313 3 gusting 6 4.4
2019-Nov-14 22:24 334 4 gusting 10 4.4
2019-Nov-14 22:19 329 5 gusting 8 4.4
2019-Nov-14 22:14 339 3 gusting 12 4.4
2019-Nov-14 22:09 340 6 gusting 11 4.4
2019-Nov-14 22:04 342 5 gusting 11 4.4
2019-Nov-14 21:59 315 6 gusting 12 4.4
2019-Nov-14 21:54 321 7 gusting 11 5.0
2019-Nov-14 21:49 351 6 gusting 13 5.0
2019-Nov-14 21:44 317 4 gusting 7 5.0
2019-Nov-14 21:39 323 6 gusting 13 5.0
2019-Nov-14 21:34 306 8 gusting 13 5.0
2019-Nov-14 21:29 315 10 gusting 17 5.0
2019-Nov-14 21:24 328 6 gusting 17 5.0
2019-Nov-14 21:19 319 10 gusting 18 5.0
2019-Nov-14 21:14 305 7 gusting 17 5.0
2019-Nov-14 21:09 305 2 gusting 8 5.0
2019-Nov-14 21:04 320 4 gusting 10 5.0
2019-Nov-14 20:59 344 6 gusting 12 5.0
2019-Nov-14 20:54 344 6 gusting 13 5.0
2019-Nov-14 20:49 337 7 gusting 13 5.0
2019-Nov-14 20:44 312 7 gusting 14 5.0
2019-Nov-14 20:39 292 6 gusting 11 5.0
2019-Nov-14 20:34 308 6 gusting 10 5.0
2019-Nov-14 20:29 309 5 gusting 8 5.0
2019-Nov-14 20:24 307 5 gusting 10 5.0
2019-Nov-14 20:19 301 6 gusting 10 5.0
2019-Nov-14 20:14 304 6 gusting 10 5.0
2019-Nov-14 20:09 304 7 gusting 10 5.0
2019-Nov-14 20:04 298 5 gusting 11 5.0
2019-Nov-14 19:59 314 6 gusting 12 5.0
2019-Nov-14 19:54 317 6 gusting 11 5.0
2019-Nov-14 19:49 313 8 gusting 17 5.0
2019-Nov-14 19:44 323 7 gusting 13 5.0
2019-Nov-14 19:39 315 8 gusting 17 5.0
2019-Nov-14 19:34 340 11 gusting 19 5.0
2019-Nov-14 19:29 323 10 gusting 18 5.0
2019-Nov-14 19:24 320 11 gusting 19 5.0
2019-Nov-14 19:19 331 12 gusting 20 5.0
2019-Nov-14 19:14 325 8 gusting 15 5.0
2019-Nov-14 19:09 306 13 gusting 21 5.0
2019-Nov-14 19:04 313 16 gusting 27 4.4
2019-Nov-14 18:59 313 7 gusting 13 4.4
2019-Nov-14 18:54 316 8 gusting 13 5.0
2019-Nov-14 18:49 327 8 gusting 17 5.0
2019-Nov-14 18:44 307 6 gusting 17 5.0
2019-Nov-14 18:39 340 12 gusting 18 5.0
2019-Nov-14 18:34 327 11 gusting 18 5.0
2019-Nov-14 18:29 321 12 gusting 22 5.0
2019-Nov-14 18:24 329 12 gusting 22 5.0
2019-Nov-14 18:19 330 13 gusting 22 5.0
2019-Nov-14 18:14 325 12 gusting 22 5.0
2019-Nov-14 18:09 326 10 gusting 19 5.0
2019-Nov-14 18:04 316 13 gusting 19 5.0
2019-Nov-14 17:59 307 11 gusting 18 5.0
2019-Nov-14 17:54 306 14 gusting 22 5.0
2019-Nov-14 17:49 312 13 gusting 22 5.0
2019-Nov-14 17:44 300 12 gusting 18 5.6
2019-Nov-14 17:39 307 11 gusting 17 5.6
2019-Nov-14 17:34 318 7 gusting 13 5.6
2019-Nov-14 17:29 326 8 gusting 17 5.6
2019-Nov-14 17:24 318 7 gusting 17 5.6
2019-Nov-14 17:19 323 10 gusting 15 5.6
2019-Nov-14 17:14 325 8 gusting 19 5.6
2019-Nov-14 17:09 330 13 gusting 21 5.6
2019-Nov-14 17:04 307 11 gusting 20 5.6
2019-Nov-14 16:59 320 12 gusting 24 5.6
2019-Nov-14 16:54 331 8 gusting 14 5.6
2019-Nov-14 16:49 315 8 gusting 18 5.6
2019-Nov-14 16:44 301 8 gusting 14 5.6
2019-Nov-14 16:39 305 8 gusting 14 5.6
2019-Nov-14 16:34 314 8 gusting 17 5.6
2019-Nov-14 16:29 309 9 gusting 13 5.6
2019-Nov-14 16:24 303 7 gusting 13 5.6
2019-Nov-14 16:19 313 10 gusting 17 5.6
2019-Nov-14 16:14 327 11 gusting 20 5.6
2019-Nov-14 16:09 323 10 gusting 22 5.6
2019-Nov-14 16:04 341 11 gusting 22 6.1
2019-Nov-14 15:59 329 15 gusting 26 6.1
2019-Nov-14 15:54 326 18 gusting 33 6.1
2019-Nov-14 15:49 312 15 gusting 30 6.7
2019-Nov-14 15:44 310 14 gusting 21 6.7
2019-Nov-14 15:39 312 14 gusting 25 6.7
2019-Nov-14 15:34 311 12 gusting 22 6.7
2019-Nov-14 15:29 320 8 gusting 19 6.7
2019-Nov-14 15:19 314 8 gusting 17 6.7
2019-Nov-14 15:14 311 12 gusting 19 6.7
2019-Nov-14 15:09 325 10 gusting 19 6.7
2019-Nov-14 15:04 325 12 gusting 22 6.7
2019-Nov-14 14:59 337 12 gusting 21 6.7
2019-Nov-14 14:54 321 8 gusting 20 6.7
2019-Nov-14 14:49 336 8 gusting 19 6.7
2019-Nov-14 14:44 323 17 gusting 30 6.7
2019-Nov-14 14:39 311 12 gusting 22 6.7
2019-Nov-14 14:34 315 10 gusting 17 7.2
2019-Nov-14 14:29 325 8 gusting 15 7.2
2019-Nov-14 14:24 330 9 gusting 19 7.2
2019-Nov-14 14:19 337 9 gusting 19 6.7
2019-Nov-14 14:14 326 7 gusting 22 7.2
2019-Nov-14 14:09 317 12 gusting 24 7.2
2019-Nov-14 14:04 318 14 gusting 26 7.8
2019-Nov-14 13:59 340 12 gusting 19 7.8
2019-Nov-14 13:54 316 11 gusting 19 7.8
2019-Nov-14 13:49 324 8 gusting 22 7.8
2019-Nov-14 13:39 337 13 gusting 24 8.3
2019-Nov-14 13:34 337 13 gusting 26 8.3
2019-Nov-14 13:29 333 10 gusting 18 7.8
2019-Nov-14 13:24 315 14 gusting 22 7.8
2019-Nov-14 13:19 320 13 gusting 24 7.8
2019-Nov-14 13:14 314 15 gusting 22 7.2
2019-Nov-14 13:09 306 8 gusting 21 7.2
2019-Nov-14 13:04 312 8 gusting 21 7.2
2019-Nov-14 12:59 307 10 gusting 21 6.7
2019-Nov-14 12:54 311 12 gusting 21 6.7
2019-Nov-14 12:39 304 11 gusting 22 6.1
2019-Nov-14 12:34 305 8 gusting 15 6.1
2019-Nov-14 12:29 291 8 gusting 14 6.1
2019-Nov-14 12:24 305 10 gusting 17 6.1
2019-Nov-14 12:19 300 12 gusting 20 6.1
2019-Nov-14 12:14 294 10 gusting 18 6.1
2019-Nov-14 12:09 300 10 gusting 15 6.1
2019-Nov-14 12:04 300 11 gusting 17 5.6
2019-Nov-14 11:59 296 8 gusting 13 5.6
2019-Nov-14 11:54 287 8 gusting 12 5.6
2019-Nov-14 11:49 292 6 gusting 11 5.6
2019-Nov-14 11:44 298 4 gusting 8 5.6
2019-Nov-14 11:39 297 8 gusting 15 5.0
2019-Nov-14 11:34 303 10 gusting 17 5.0
2019-Nov-14 11:29 305 5 gusting 10 5.0
2019-Nov-14 11:24 320 5 gusting 6 5.0
2019-Nov-14 11:19 298 5 gusting 10 5.0
2019-Nov-14 11:14 291 8 gusting 14 4.4
2019-Nov-14 11:09 295 5 gusting 10 4.4
2019-Nov-14 11:04 315 6 gusting 11 4.4
2019-Nov-14 10:59 292 7 gusting 13 4.4
2019-Nov-14 10:54 272 6 gusting 17 4.4
2019-Nov-14 10:49 264 6 gusting 13 4.4
2019-Nov-14 10:44 249 9 gusting 13 4.4
2019-Nov-14 10:39 261 9 gusting 17 4.4
2019-Nov-14 10:34 256 8 gusting 17 4.4
2019-Nov-14 10:29 256 8 gusting 14 4.4
2019-Nov-14 10:24 258 8 gusting 13 4.4
2019-Nov-14 10:19 238 7 gusting 13 4.4
2019-Nov-14 10:14 260 13 gusting 21 4.4
2019-Nov-14 10:09 265 11 gusting 18 4.4
2019-Nov-14 10:04 263 6 gusting 7 3.9
2019-Nov-14 09:59 234 2 gusting 6 3.9
2019-Nov-14 09:54 258 1 gusting 7 3.9
2019-Nov-14 09:49 259 2 gusting 6 3.3
2019-Nov-14 09:44 223 4 gusting 7 3.3
2019-Nov-14 09:39 238 6 gusting 11 3.3
2019-Nov-14 09:34 235 8 gusting 13 3.3
2019-Nov-14 09:29 280 6 gusting 13 3.3
2019-Nov-14 09:24 257 11 gusting 14 3.3
2019-Nov-14 09:19 254 5 gusting 10 3.3
2019-Nov-14 09:14 213 5 gusting 11 3.3
2019-Nov-14 09:09 239 6 gusting 12 3.3
2019-Nov-14 09:04 205 7 gusting 17 3.3
2019-Nov-14 08:59 189 11 gusting 18 3.3
2019-Nov-14 08:54 185 13 gusting 22 3.3
2019-Nov-14 08:49 206 9 gusting 17 3.3
2019-Nov-14 08:44 199 6 gusting 17 3.3
2019-Nov-14 08:39 201 7 gusting 15 3.3
2019-Nov-14 08:34 212 8 gusting 12 3.3
2019-Nov-14 08:29 162 8 gusting 17 3.3
2019-Nov-14 08:24 202 8 gusting 13 3.3
2019-Nov-14 08:19 172 6 gusting 8 3.3
2019-Nov-14 08:14 199 5 gusting 8 3.3
2019-Nov-14 08:09 164 4 gusting 10 3.3
2019-Nov-14 08:04 189 6 gusting 10 3.3
2019-Nov-14 07:59 180 4 gusting 10 3.3
2019-Nov-14 07:54 171 6 gusting 12 3.3
2019-Nov-14 07:49 158 6 gusting 8 3.9
2019-Nov-14 07:44 163 6 gusting 10 3.9
2019-Nov-14 07:39 182 6 gusting 8 3.3
2019-Nov-14 07:34 214 4 gusting 8 3.3
2019-Nov-14 07:29 218 5 gusting 8 3.3
2019-Nov-14 07:24 222 6 gusting 11 3.3
2019-Nov-14 07:14 229 4 gusting 11 3.3
2019-Nov-14 07:09 204 6 gusting 11 3.3
2019-Nov-14 07:04 186 5 gusting 10 3.3
2019-Nov-14 06:59 191 6 gusting 8 3.3
2019-Nov-14 06:54 156 4 gusting 7 3.3
2019-Nov-14 06:49 146 4 gusting 6 3.3
2019-Nov-14 06:44 247 6 gusting 11 3.3
2019-Nov-14 06:39 251 5 gusting 8 3.3
2019-Nov-14 06:34 221 6 gusting 13 3.3
2019-Nov-14 06:29 177 4 gusting 8 3.3
2019-Nov-14 06:24 185 6 gusting 12 3.3
2019-Nov-14 06:19 191 6 gusting 10 3.3
2019-Nov-14 06:14 193 5 gusting 10 2.8
2019-Nov-14 06:09 198 7 gusting 11 2.8
2019-Nov-14 06:04 179 6 gusting 8 2.8
2019-Nov-14 05:59 216 2 gusting 7 2.8
2019-Nov-14 05:54 226 4 gusting 6 2.8
2019-Nov-14 05:49 227 3 gusting 7 3.3
2019-Nov-14 05:44 217 5 gusting 7 3.3
2019-Nov-14 05:39 220 1 gusting 4 3.3
2019-Nov-14 05:34 246 1 gusting 4 3.3
2019-Nov-14 05:29 255 1 gusting 2 2.8
2019-Nov-14 05:24 258 3 gusting 5 2.8
2019-Nov-14 05:19 262 4 gusting 6 3.3
2019-Nov-14 05:14 265 0 gusting 2 3.3
2019-Nov-14 05:09 279 1 gusting 6 3.3
2019-Nov-14 05:04 288 5 gusting 11 3.3
2019-Nov-14 04:59 288 6 gusting 15 3.3
2019-Nov-14 04:54 284 8 gusting 14 3.3
2019-Nov-14 04:49 288 7 gusting 10 3.3
2019-Nov-14 04:44 280 6 gusting 8 3.3
2019-Nov-14 04:39 288 4 gusting 10 2.8
2019-Nov-14 04:34 274 6 gusting 8 2.8
2019-Nov-14 04:29 276 6 gusting 8 2.8
2019-Nov-14 04:24 276 4 gusting 10 2.8
2019-Nov-14 04:19 296 6 gusting 11 3.3
2019-Nov-14 04:14 280 5 gusting 10 3.3
2019-Nov-14 04:09 290 5 gusting 11 3.9
2019-Nov-14 04:04 304 7 gusting 19 4.4
2019-Nov-14 03:59 317 8 gusting 15 4.4
2019-Nov-14 03:54 320 2 gusting 6 4.4
2019-Nov-14 03:49 300 0 gusting 2 4.4
2019-Nov-14 03:44 293 0 gusting 2 4.4
2019-Nov-14 03:39 302 0 gusting 2 4.4
2019-Nov-14 03:34 263 4.4
2019-Nov-14 03:29 267 2 gusting 4 4.4
2019-Nov-14 03:24 289 0 gusting 2 4.4
2019-Nov-14 03:19 261 2 gusting 4 4.4
2019-Nov-14 03:14 293 0 gusting 5 4.4
2019-Nov-14 03:09 312 0 gusting 2 4.4
2019-Nov-14 03:04 315 1 gusting 2 4.4
2019-Nov-14 02:59 301 5.0
2019-Nov-14 02:54 301 1 gusting 2 5.0
2019-Nov-14 02:49 324 2 gusting 5 5.0
2019-Nov-14 02:44 312 2 gusting 6 5.0
2019-Nov-14 02:39 317 3 gusting 10 5.0
2019-Nov-14 02:34 318 4 gusting 6 5.0
2019-Nov-14 02:29 309 2 gusting 8 5.0
2019-Nov-14 02:24 323 6 gusting 13 5.0
2019-Nov-14 02:19 302 6 gusting 13 5.0
2019-Nov-14 02:14 326 5 gusting 11 5.6
2019-Nov-14 02:09 317 6 gusting 10 5.6
2019-Nov-14 02:04 309 6 gusting 10 5.6
2019-Nov-14 01:59 306 7 gusting 13 5.6
2019-Nov-14 01:54 288 5 gusting 8 5.6
2019-Nov-14 01:49 276 6 gusting 13 5.6
2019-Nov-14 01:44 293 6 gusting 10 5.6
2019-Nov-14 01:39 306 6 gusting 10 5.6
2019-Nov-14 01:34 294 9 gusting 13 5.6
2019-Nov-14 01:29 293 8 gusting 13 5.6
2019-Nov-14 01:24 305 10 gusting 14 5.6
2019-Nov-14 01:19 289 9 gusting 14 5.6
2019-Nov-14 01:14 291 10 gusting 18 5.0
2019-Nov-14 01:09 304 10 gusting 14 5.0
2019-Nov-14 01:04 302 8 gusting 13 5.0
2019-Nov-14 00:59 296 9 gusting 13 5.0
2019-Nov-14 00:55 292 7 gusting 13 5.0
2019-Nov-14 00:50 294 7 gusting 12 5.0
2019-Nov-14 00:44 293 8 gusting 13 5.0
2019-Nov-14 00:39 305 7 gusting 13 5.0
2019-Nov-14 00:34 305 8 gusting 12 5.0
2019-Nov-14 00:29 310 8 gusting 13 5.6
2019-Nov-14 00:24 321 13 gusting 22 5.6
2019-Nov-14 00:19 308 11 gusting 20 5.6
2019-Nov-14 00:14 306 15 gusting 22 5.6
2019-Nov-14 00:09 316 17 gusting 22 6.1
2019-Nov-14 00:04 290 13 gusting 22 6.1
2019-Nov-13 23:59 291 13 gusting 22 6.7
2019-Nov-13 23:54 293 13 gusting 22 6.7
2019-Nov-13 23:49 288 14 gusting 20 6.7
2019-Nov-13 23:44 288 10 gusting 17 7.2
2019-Nov-13 23:39 298 10 gusting 15 7.2
2019-Nov-13 23:34 289 12 gusting 17 7.2
2019-Nov-13 23:29 292 14 gusting 26 7.2
2019-Nov-13 23:24 290 13 gusting 22 7.2
2019-Nov-13 23:19 281 10 gusting 20 7.8
2019-Nov-13 23:14 289 9 gusting 17 7.8
2019-Nov-13 22:54 299 12 gusting 17 7.8
2019-Nov-13 22:49 293 13 gusting 19 7.8
2019-Nov-13 22:44 290 13 gusting 19 7.8
2019-Nov-13 22:39 284 13 gusting 19 7.8
2019-Nov-13 22:34 285 12 gusting 22 7.8
2019-Nov-13 22:29 287 14 gusting 19 7.8
2019-Nov-13 22:24 288 17 gusting 27 8.3
2019-Nov-13 22:19 293 13 gusting 27 8.3
2019-Nov-13 22:14 291 12 gusting 21 8.3
2019-Nov-13 22:09 284 11 gusting 18 8.3
2019-Nov-13 22:04 276 9 gusting 18 8.3
2019-Nov-13 21:59 286 10 gusting 15 8.3
2019-Nov-13 21:54 292 11 gusting 19 8.3
2019-Nov-13 21:49 290 12 gusting 19 8.3
2019-Nov-13 21:44 290 13 gusting 19 8.3
2019-Nov-13 21:39 288 12 gusting 17 8.3
2019-Nov-13 21:34 288 12 gusting 21 8.3
2019-Nov-13 21:29 285 11 gusting 17 8.3
2019-Nov-13 21:24 276 11 gusting 17 8.9
2019-Nov-13 19:19 242 6 gusting 15 8.9
2019-Nov-13 19:14 268 8 gusting 19 8.9
2019-Nov-13 19:09 249 10 gusting 15 8.9
2019-Nov-13 19:04 260 10 gusting 15 8.9
2019-Nov-13 18:54 253 11 gusting 19 8.9
2019-Nov-13 18:49 252 12 gusting 18 8.9
2019-Nov-13 18:44 249 13 gusting 20 9.4
2019-Nov-13 18:39 251 6 gusting 12 9.4
2019-Nov-13 18:34 254 10 gusting 14 9.4
2019-Nov-13 18:29 254 9 gusting 19 9.4
2019-Nov-13 18:24 255 11 gusting 19 9.4
2019-Nov-13 18:19 252 9 gusting 14 9.4
2019-Nov-13 18:14 260 11 gusting 17 9.4
2019-Nov-13 18:09 260 5 gusting 10 9.4
2019-Nov-13 18:04 246 6 gusting 10 9.4
2019-Nov-13 17:59 226 9 gusting 17 9.4
2019-Nov-13 17:54 247 8 gusting 17 9.4
2019-Nov-13 17:49 233 7 gusting 12 9.4
2019-Nov-13 17:44 227 6 gusting 12 9.4
2019-Nov-13 17:39 219 5 gusting 10 9.4
2019-Nov-13 17:34 212 4 gusting 7 9.4
2019-Nov-13 17:29 250 8 gusting 13 9.4
2019-Nov-13 17:24 261 5 gusting 12 10.0
2019-Nov-13 17:19 259 6 gusting 12 10.0
2019-Nov-13 17:14 255 7 gusting 19 10.0
2019-Nov-13 17:09 271 11 gusting 19 10.0
2019-Nov-13 17:04 282 12 gusting 20 10.0
2019-Nov-13 16:59 284 9 gusting 17 10.6
2019-Nov-13 16:54 275 6 gusting 10 10.6
2019-Nov-13 16:49 249 10 gusting 12 10.6
2019-Nov-13 16:44 266 6 gusting 10 10.6
2019-Nov-13 16:39 221 5 gusting 10 10.6
2019-Nov-13 16:34 234 6 gusting 10 10.6
2019-Nov-13 16:29 241 7 gusting 13 10.6
2019-Nov-13 16:24 268 7 gusting 11 10.6
2019-Nov-13 16:19 257 10 gusting 13 10.6
2019-Nov-13 16:14 258 7 gusting 13 10.6
2019-Nov-13 16:09 259 11 gusting 14 11.1
2019-Nov-13 16:04 258 7 gusting 12 11.1
2019-Nov-13 15:59 260 7 gusting 12 11.1
2019-Nov-13 15:54 243 7 gusting 11 11.1
2019-Nov-13 15:49 262 7 gusting 12 11.1
2019-Nov-13 15:44 260 6 gusting 12 11.1
2019-Nov-13 15:39 251 6 gusting 13 11.1
2019-Nov-13 15:34 264 6 gusting 12 11.1
2019-Nov-13 15:29 228 9 gusting 12 11.1
2019-Nov-13 15:24 261 7 gusting 12 11.1
2019-Nov-13 15:19 267 7 gusting 11 11.1
2019-Nov-13 15:14 255 7 gusting 11 11.1
2019-Nov-13 15:09 272 7 gusting 13 11.1
2019-Nov-13 15:04 255 6 gusting 12 11.7
2019-Nov-13 14:59 261 5 gusting 10 11.1
2019-Nov-13 14:54 291 5 gusting 6 11.1
2019-Nov-13 14:49 270 4 gusting 7 11.1
2019-Nov-13 14:44 273 5 gusting 7 11.1
2019-Nov-13 14:39 279 5 gusting 6 11.1
2019-Nov-13 14:34 286 5 gusting 7 11.1
2019-Nov-13 14:29 253 5 gusting 8 11.1
2019-Nov-13 14:24 275 6 gusting 11 11.1
2019-Nov-13 14:19 258 6 gusting 10 11.1
2019-Nov-13 14:14 287 2 gusting 6 11.1
2019-Nov-13 14:09 233 5 gusting 10 11.1
2019-Nov-13 14:04 260 5 gusting 7 11.1
2019-Nov-13 13:44 258 6 gusting 6 10.6
2019-Nov-13 13:39 272 6 gusting 11 10.6
2019-Nov-13 13:34 271 7 gusting 11 10.6
2019-Nov-13 13:29 257 5 gusting 10 10.6
2019-Nov-13 13:24 278 5 gusting 8 10.0
2019-Nov-13 13:19 283 2 gusting 7 10.0
2019-Nov-13 13:09 299 2 gusting 6 10.0
2019-Nov-13 13:04 271 6 gusting 8 10.0
2019-Nov-13 12:59 279 4 gusting 10 10.0
2019-Nov-13 12:54 286 6 gusting 10 10.0
2019-Nov-13 12:49 290 8 gusting 13 10.0
2019-Nov-13 12:44 281 6 gusting 13 10.0
2019-Nov-13 12:38 295 6 gusting 11 10.0
2019-Nov-13 12:33 292 5 gusting 7 10.0
2019-Nov-13 12:29 266 5 gusting 7 10.6
2019-Nov-13 12:19 303 1 gusting 5 10.0
2019-Nov-13 12:09 281 2 gusting 5 10.0
2019-Nov-13 12:04 280 2 gusting 5 10.0
2019-Nov-13 11:58 310 1 gusting 4 10.0
2019-Nov-13 11:53 9.4
2019-Nov-13 11:49 352 1 gusting 7 9.4
2019-Nov-13 11:44 333 3 gusting 10 9.4
2019-Nov-13 11:38 327 6 gusting 12 9.4
2019-Nov-13 11:33 319 6 gusting 13 10.0
2019-Nov-13 11:29 313 6 gusting 12 10.0
2019-Nov-13 11:23 325 6 gusting 11 10.0
2019-Nov-13 11:18 325 6 gusting 10 10.0
2019-Nov-13 11:14 315 7 gusting 13 10.0
2019-Nov-13 11:09 316 4 gusting 8 10.0
2019-Nov-13 11:03 321 4 gusting 7 9.4
2019-Nov-13 10:59 324 5 gusting 8 9.4
2019-Nov-13 10:53 312 5 gusting 8 9.4
2019-Nov-13 10:49 304 6 gusting 8 9.4
2019-Nov-13 10:44 312 5 gusting 7 9.4
2019-Nov-13 10:39 321 2 gusting 6 9.4
2019-Nov-13 10:34 323 2 gusting 6 9.4
2019-Nov-13 10:29 326 2 gusting 6 9.4
2019-Nov-13 10:24 337 4 gusting 7 9.4
2019-Nov-13 10:19 352 2 gusting 5 10.0
2019-Nov-13 10:14 321 2 gusting 2 10.0
2019-Nov-13 10:09 317 3 gusting 5 10.0
2019-Nov-13 10:04 322 2 gusting 5 10.0
2019-Nov-13 09:59 339 1 gusting 2 9.4
2019-Nov-13 09:54 326 1 gusting 4 9.4
2019-Nov-13 09:49 348 3 gusting 6 9.4
2019-Nov-13 09:44 329 2 gusting 5 9.4
2019-Nov-13 09:39 326 0 gusting 4 9.4
2019-Nov-13 09:29 330 1 gusting 4 9.4
2019-Nov-13 09:19 008 2 gusting 6 9.4
2019-Nov-13 09:09 010 4 gusting 7 9.4
2019-Nov-13 09:04 356 4 gusting 6 9.4
2019-Nov-13 08:58 001 5 gusting 6 9.4
2019-Nov-13 08:54 9.4
2019-Nov-13 08:48 345 3 gusting 6 9.4
2019-Nov-13 08:44 352 2 gusting 6 9.4
2019-Nov-13 08:39 347 2 gusting 6 9.4
2019-Nov-13 08:33 001 6 gusting 10 9.4
2019-Nov-13 08:28 003 8 gusting 12 8.9
2019-Nov-13 08:24 004 7 gusting 12 9.4
2019-Nov-13 08:19 002 5 gusting 10 9.4
2019-Nov-13 08:13 002 4 gusting 6 9.4
2019-Nov-13 08:09 357 4 gusting 8 9.4
2019-Nov-13 08:04 003 5 gusting 10 9.4
2019-Nov-13 07:59 009 6 gusting 11 9.4
2019-Nov-13 07:54 009 6 gusting 10 9.4
2019-Nov-13 07:49 354 6 gusting 11 8.9
2019-Nov-13 07:43 004 8 gusting 13 8.9
2019-Nov-13 07:39 004 8 gusting 15 8.9
2019-Nov-13 07:34 009 11 gusting 15 9.4
2019-Nov-13 07:29 012 8 gusting 13 9.4
2019-Nov-13 07:24 006 6 gusting 12 9.4
2019-Nov-13 07:19 003 9 gusting 13 9.4
2019-Nov-13 07:14 9.4
2019-Nov-13 07:09 006 7 gusting 12 9.4
2019-Nov-13 07:04 004 5 gusting 13 9.4